Temperature
19 19 18 18 18 18 17 17 17 17 16 16 16 16 16 16 16 16 16 16 16 15 15 15 15 15 15 15 15 15 15 15 15 15 15 15 15 15 15 15 15 15 15
19 19 18 18 18 18 17 17 17 16 16 16 16 16 16 16 16 16 16 15 15 15 15 15 15 15 15 15 15 15 15 15 14 14 14 14 14 14 14 14 14 14 14
19 18 18 18 18 17 17 17 16 16 16 16 16 16 16 16 16 16 15 15 15 15 15 15 15 15 15 15 15 15 14 14 14 14 14 14 14 14 14 14 14 14 14
19 18 18 18 18 17 17 17 16 16 16 16 16 16 16 15 15 15 15 15 15 15 15 15 15 15 15 14 14 14 14 14 14 14 14 14 14 14 13 14 14 14 14
18 18 18 18 17 17 17 17 16 16 16 16 16 15 15 15 15 15 15 15 15 15 15 15 14 14 14 14 14 14 14 14 14 13 13 13 13 13 13 13 13 13 13
18 18 18 17 17 17 17 16 16 16 16 16 15 15 15 15 15 15 15 15 15 15 14 14 14 14 14 14 14 14 13 13 13 13 13 13 13 13 13 13 13 13 13
18 18 17 17 17 16 16 16 16 16 16 15 15 15 15 15 15 15 14 14 14 14 14 14 14 14 14 14 14 14 13 13 13 13 13 13 13 13 13 13 13 13 13
17 17 17 17 16 16 16 16 16 16 15 15 15 15 15 15 15 14 14 14 14 14 14 14 14 14 14 13 13 13 13 13 13 13 13 13 13 13 13 13 13 13 13
17 17 17 17 16 16 16 16 16 15 15 15 15 15 15 15 14 14 14 14 14 14 14 14 14 14 13 13 13 13 13 13 13 13 13 13 13 13 12 12 12 12 12
17 17 16 16 16 16 16 16 15 15 15 15 15 14 14 14 14 14 14 14 14 14 13 13 13 13 13 13 13 13 13 13 13 13 13 12 13 13 12 12 12 12 12
16 16 16 16 15 15 15 15 15 15 15 15 15 14 14 14 14 14 13 13 13 13 13 13 13 13 13 12 12 12 12 12 12 12 12 12 12 12 12 12 12 12 12
16 16 16 15 15 15 15 15 15 15 14 14 14 14 14 14 14 13 13 13 13 13 13 13 13 12 12 12 12 12 12 12 12 12 12 12 12 12 12 12 12 12 12
16 15 15 15 15 15 14 14 14 14 14 14 14 14 14 14 13 13 13 13 13 13 13 12 12 12 12 12 12 12 12 12 12 12 12 12 12 12 12 12 12 12 12
16 15 15 15 14 14 14 14 14 14 14 14 13 13 13 13 13 13 13 13 13 12 12 12 12 12 12 12 12 12 12 12 11 11 11 11 11 11 11 11 12 12 12
15 15 15 14 14 14 14 14 13 13 13 13 13 13 13 13 13 13 13 13 12 12 12 12 12 12 12 12 12 12 12 12 11 11 11 11 11 11 11 11 11 11 11
15 15 14 14 14 14 14 13 13 13 13 13 13 13 13 13 13 13 13 13 12 12 12 12 12 12 12 12 12 12 12 11 11 11 11 11 11 11 11 11 11 11 11
14 14 14 14 14 13 13 13 13 13 13 13 13 13 13 13 13 13 12 12 12 12 12 12 12 11 11 11 11 11 11 11 11 11 11 11 11 11 11 11 11 11 11
14 14 14 13 13 13 13 13 13 13 13 13 13 13 13 13 12 12 12 12 12 12 12 11 11 11 11 11 11 11 11 11 11 11 11 11 10 10 10 10 10 10 10
14 14 13 13 13 13 13 13 13 13 13 13 13 13 13 12 12 12 12 12 11 11 11 11 11 11 11 11 11 11 11 11 11 10 10 10 10 10 10 10 10 10 10
14 13 13 13 13 13 13 13 13 13 12 12 12 12 12 12 12 12 12 11 11 11 11 11 11 11 11 11 11 11 11 11 10 10 10 10 10 10 10 10 10 10 10
13 13 13 13 13 13 13 13 13 12 12 12 12 12 12 12 12 12 11 11 11 11 11 11 11 11 11 11 11 11 11 11 10 10 10 10 10 10 10 10 10 10 10
13 13 13 13 12 12 12 12 12 12 12 12 12 12 12 11 11 11 11 11 11 11 11 11 11 11 11 11 11 11 11 11 10 10 10 10 10 10 9 9 9 9 9
13 12 12 12 12 12 12 12 12 12 12 12 12 12 11 11 11 11 11 11 11 11 11 11 11 11 10 11 10 10 10 10 10 10 10 10 9 9 9 9 9 9 9
12 12 12 12 12 12 12 12 12 12 12 11 11 11 11 11 11 10 10 10 10 10 10 10 10 10 10 10 10 10 10 10 10 10 9 9 9 9 9 9 9 9 9
12 12 12 12 12 12 11 11 11 11 11 11 11 11 10 10 10 10 10 10 10 10 10 10 10 10 10 10 10 10 10 10 9 9 9 9 9 9 9 9 8 8 8
12 12 12 12 12 11 11 11 11 11 11 11 10 10 10 10 10 10 10 10 10 10 10 10 10 10 10 10 10 9 9 9 9 9 9 9 9 8 8 8 8 8 8
Wind_Speed
5 5 5 5 4 4 4 4 4 4 4 3 3 3 3 3 3 3 3 3 3 2 2 2 3 2 2 2 2 2 2 3 4 3 2 3 2 2 2 2 2 2 3
5 5 5 4 4 4 4 4 4 4 4 4 3 3 3 4 3 3 4 3 3 3 3 3 4 3 3 2 2 3 3 3 3 4 3 2 2 2 2 2 2 2 3
5 5 5 4 4 4 4 4 4 4 3 3 3 3 3 3 3 3 4 4 4 4 4 4 4 3 3 2 3 3 3 3 3 3 3 2 2 1 1 1 2 2 2
4 5 5 5 5 5 4 4 4 4 3 3 3 3 3 3 2 2 3 3 3 4 4 4 4 4 4 4 3 3 2 2 2 2 2 2 2 1 1 1 2 2 2
5 5 5 4 4 3 3 3 3 3 4 3 2 3 3 3 3 3 3 3 3 3 3 3 4 4 5 4 3 3 3 2 2 2 2 2 2 2 2 2 3 2 3
4 5 4 3 3 3 3 3 3 3 3 2 3 3 3 3 3 4 3 3 3 3 4 4 4 3 4 4 4 4 4 4 3 3 3 4 4 4 3 3 2 2 3
4 3 3 3 3 4 4 3 3 3 3 3 3 3 4 4 4 4 4 3 3 4 4 4 3 3 3 2 3 3 3 4 5 5 5 5 5 4 3 3 4 4 4
4 3 3 3 4 3 2 3 3 3 3 3 3 4 4 4 4 4 3 3 3 4 4 4 4 3 3 2 2 2 3 4 5 4 5 6 6 5 6 5 4 4 3
3 3 3 3 3 3 3 4 3 3 3 3 2 3 3 4 4 3 2 2 3 4 4 4 4 4 4 3 2 3 3 4 4 5 5 6 6 7 6 3 3 3 4
4 3 2 3 3 4 4 4 2 2 3 2 2 2 3 4 4 4 2 2 3 3 3 3 4 4 4 3 3 3 4 5 3 3 3 3 4 5 7 7 6 5 4
3 2 1 2 4 4 3 2 2 2 2 2 2 3 3 4 4 4 4 3 3 3 3 3 3 4 4 4 4 4 6 5 3 3 3 3 3 3 4 5 6 6 6
2 1 1 2 3 2 2 2 2 2 2 2 2 3 3 3 4 4 5 5 5 4 4 4 4 4 5 5 4 5 5 3 2 2 2 3 3 3 4 4 5 7 7
3 2 2 2 2 1 2 3 2 2 2 3 3 3 4 3 3 5 6 6 6 4 4 5 5 5 5 4 5 4 3 2 2 2 3 4 4 4 3 3 3 3 4
4 3 2 2 2 2 2 3 3 3 4 4 4 5 4 4 4 3 3 3 4 4 3 3 3 3 3 3 3 3 3 3 4 4 4 3 2 2 2 2 2 2 2
3 3 2 3 3 3 2 3 4 5 5 5 5 5 5 6 6 6 4 4 4 4 2 2 2 2 2 2 2 2 3 3 3 3 3 2 2 2 2 2 2 2 2
3 3 3 3 3 3 3 2 4 5 5 7 7 7 6 7 7 6 7 6 5 5 3 3 4 4 4 4 4 3 3 3 3 3 3 3 3 3 3 2 2 2 3
5 4 4 4 4 4 4 4 3 3 3 4 6 6 6 6 6 6 6 5 5 5 3 4 5 5 5 4 4 4 4 4 3 4 4 4 3 3 3 3 2 3 3
5 5 5 4 5 4 5 5 4 4 4 4 4 6 6 6 6 5 5 3 2 3 4 5 5 5 5 5 5 4 4 3 3 4 4 4 4 4 3 4 3 4 4
4 4 4 4 4 4 4 4 4 5 4 4 3 4 5 5 4 3 4 3 4 5 5 5 5 5 5 5 5 5 4 4 4 4 4 5 4 4 4 4 4 4 4
4 6 5 4 4 4 4 4 4 4 4 4 5 4 2 1 2 2 3 4 5 5 5 5 5 5 5 5 5 5 5 4 5 5 5 5 4 5 5 6 5 5 5
4 4 5 4 4 5 4 5 5 5 5 5 5 5 5 4 5 5 4 5 5 6 6 5 5 5 5 5 5 5 6 5 5 5 5 5 5 5 5 5 5 5 5
4 4 4 5 5 5 5 5 5 5 5 6 5 4 5 4 4 4 5 5 5 5 4 4 5 5 5 5 5 5 5 5 5 5 4 4 4 4 4 4 5 5 5
5 5 5 5 5 5 5 4 4 5 5 5 5 4 3 4 4 4 4 4 3 3 3 3 4 4 4 4 5 4 5 5 5 4 4 4 4 4 4 5 5 5 5
5 5 5 4 4 4 4 4 4 4 4 4 4 4 4 4 4 4 3 3 3 3 2 2 3 5 5 4 4 4 4 4 4 4 5 5 4 4 4 4 5 6 5
4 4 4 4 4 4 4 4 4 4 4 3 3 3 3 3 3 3 2 2 3 3 3 3 3 4 4 4 4 4 4 4 5 4 4 4 5 5 4 5 4 4 5
4 3 3 3 3 3 3 3 3 3 3 2 2 2 2 2 2 2 1 1 2 2 3 2 3 3 3 3 4 4 4 4 5 5 4 4 4 4 4 3 4 4 4
Wind_Direction
186 187 190 193 191 187 194 207 213 221 222 223 233 239 245 240 229 215 225 223 221 237 239 224 242 244 236 224 206 205 212 209 241 266 262 280 269 272 296 280 266 247 237
192 191 197 198 186 189 201 209 209 219 223 224 230 234 247 248 233 221 228 225 218 231 237 233 243 241 238 232 211 215 220 219 224 255 271 271 261 269 277 285 280 265 250
180 187 196 203 201 202 206 210 210 217 223 221 217 232 248 250 235 225 218 216 217 223 225 228 237 230 244 241 225 223 226 232 227 234 266 271 266 266 282 288 284 294 277
171 182 198 208 208 210 209 212 216 215 218 225 226 241 247 246 237 228 221 222 227 235 235 234 237 228 232 234 234 228 222 228 225 228 256 269 267 266 230 258 280 282 283
169 183 207 214 207 202 207 215 216 212 220 222 229 249 256 248 243 231 222 228 230 247 254 249 245 235 229 228 237 224 211 217 215 223 248 264 267 250 240 232 248 276 276
174 196 205 198 201 209 209 210 212 217 222 216 233 245 256 261 257 234 214 227 229 238 251 256 252 247 244 242 246 236 211 207 213 219 239 247 259 250 244 237 234 249 265
178 193 196 196 204 217 214 205 214 220 221 230 236 235 250 257 255 245 220 215 232 238 239 243 250 254 248 239 250 252 242 229 213 212 227 241 239 231 221 235 232 233 245
181 189 198 200 212 216 212 222 226 221 222 226 229 234 249 264 265 250 233 222 239 248 244 229 231 251 243 223 227 249 260 255 242 231 232 240 238 228 218 224 232 242 257
195 205 212 206 207 208 217 230 227 217 226 222 222 227 241 269 277 259 224 220 241 256 254 235 224 230 230 215 223 251 270 276 263 249 250 249 243 233 213 204 215 223 249
221 221 220 206 207 216 222 222 216 210 221 224 237 237 239 258 269 258 221 214 241 259 261 247 228 226 227 217 219 228 249 265 275 287 282 275 257 236 214 210 214 222 232
231 228 233 225 217 216 216 213 216 214 220 233 248 260 256 261 264 249 227 212 226 245 258 262 255 239 237 238 227 228 239 250 258 261 270 276 272 254 233 223 217 217 223
195 217 240 237 232 222 208 223 216 204 217 237 250 277 277 268 258 248 233 226 220 225 246 253 258 254 248 249 244 238 234 233 236 245 255 261 262 262 260 250 236 228 230
167 205 237 234 222 205 206 219 223 215 224 241 241 257 272 273 264 252 242 238 232 233 247 250 259 262 260 254 244 237 217 212 217 228 245 252 256 261 267 265 260 246 241
188 206 214 213 224 220 219 218 213 220 228 237 242 250 259 262 260 254 249 244 241 244 257 269 274 265 252 249 251 242 225 216 216 228 244 257 262 262 265 262 254 253 243
203 208 212 212 214 218 228 233 233 235 224 226 238 239 242 255 251 235 232 241 239 237 236 266 280 282 267 258 254 250 234 213 221 233 237 254 260 259 270 271 252 242 236
205 213 218 218 219 217 226 265 259 242 246 240 235 234 242 243 253 243 236 233 226 204 197 238 251 253 251 252 249 253 250 236 233 235 234 232 238 248 264 274 256 239 242
208 214 220 222 221 218 219 227 262 286 278 256 247 245 240 249 248 238 227 221 216 190 212 235 242 247 249 248 246 245 247 244 233 228 231 234 236 241 245 249 251 250 252
217 220 220 223 223 221 222 225 228 238 261 277 270 255 253 255 252 237 209 178 211 209 228 233 239 243 244 241 240 241 244 241 233 233 232 232 229 229 234 238 239 249 252
219 223 223 228 227 226 225 224 228 232 239 255 275 276 261 253 250 237 191 206 227 232 233 238 240 240 240 240 239 236 235 236 237 237 238 232 227 227 232 237 238 240 244
230 231 224 224 229 229 227 226 231 233 236 244 253 260 259 219 238 241 222 229 233 238 235 237 239 237 233 235 236 234 236 240 241 239 243 240 233 230 234 237 236 236 238
228 231 228 227 228 227 229 230 231 233 237 243 250 249 226 230 236 237 231 233 237 240 241 241 240 238 234 232 234 235 237 243 241 239 238 237 235 233 234 236 239 239 239
221 224 221 224 228 230 234 233 232 234 239 244 254 252 225 230 240 244 243 243 243 243 243 241 244 239 232 230 229 230 235 241 241 238 239 239 237 237 236 235 234 233 232
219 224 223 223 225 227 233 236 236 237 240 241 244 247 240 242 249 251 253 253 251 252 248 236 239 245 241 238 234 227 230 238 240 235 234 236 239 240 238 239 239 238 231
218 220 219 220 221 223 228 236 237 238 240 243 244 243 243 244 247 250 256 260 258 257 252 246 246 247 249 249 241 234 233 240 239 230 226 230 235 242 243 244 244 241 238
212 213 213 212 215 223 232 237 238 239 240 242 242 243 246 246 249 256 263 268 271 276 277 268 265 264 262 259 252 240 236 236 237 233 230 231 233 238 241 244 242 244 240
217 213 212 214 216 220 228 237 243 243 236 230 229 235 240 243 251 259 267 280 284 288 292 286 280 273 268 260 261 253 239 237 240 237 228 230 234 239 239 243 245 245 247
Height
1509 1511 1512 1514 1515 1516 1517 1518 1519 1520 1520 1520 1521 1521 1521 1521 1521 1521 1521 1521 1521 1521 1522 1522 1522 1522 1522 1522 1522 1522 1522 1522 1520 1519 1519 1519 1519 1519 1519 1519 1519 1520 1520
1506 1508 1510 1511 1513 1514 1515 1515 1516 1517 1518 1517 1518 1518 1518 1518 1517 1518 1518 1518 1518 1519 1519 1519 1519 1519 1519 1519 1519 1519 1519 1518 1518 1516 1515 1515 1515 1516 1516 1516 1517 1517 1517
1504 1505 1507 1508 1510 1511 1512 1513 1514 1514 1514 1514 1515 1514 1514 1515 1515 1514 1515 1515 1515 1515 1515 1515 1515 1516 1516 1516 1516 1515 1515 1515 1514 1513 1512 1512 1512 1513 1513 1514 1514 1514 1514
1501 1503 1504 1505 1507 1508 1509 1510 1511 1511 1511 1511 1511 1511 1512 1512 1512 1512 1512 1512 1512 1512 1512 1512 1512 1512 1512 1512 1512 1512 1511 1511 1511 1510 1510 1509 1510 1510 1510 1510 1511 1511 1511
1499 1500 1502 1503 1504 1505 1506 1507 1507 1508 1508 1508 1508 1508 1509 1509 1509 1509 1509 1509 1508 1508 1508 1508 1509 1509 1509 1509 1509 1508 1508 1508 1507 1507 1506 1506 1506 1506 1507 1507 1507 1508 1508
1497 1498 1499 1500 1501 1502 1503 1504 1504 1504 1505 1505 1505 1505 1506 1505 1505 1505 1506 1505 1505 1505 1505 1505 1505 1505 1505 1505 1505 1505 1505 1504 1503 1503 1503 1503 1503 1503 1504 1504 1504 1504 1504
1495 1496 1497 1498 1499 1500 1500 1501 1501 1501 1502 1502 1502 1502 1502 1502 1502 1502 1502 1502 1502 1501 1501 1501 1502 1502 1502 1502 1501 1501 1501 1501 1501 1500 1500 1499 1500 1500 1500 1500 1501 1501 1501
1492 1493 1494 1495 1496 1497 1497 1498 1498 1499 1499 1499 1499 1499 1499 1499 1499 1499 1499 1498 1498 1498 1498 1498 1498 1498 1498 1498 1498 1498 1497 1497 1497 1497 1497 1497 1497 1497 1497 1498 1497 1498 1498
1490 1491 1491 1492 1493 1494 1494 1494 1495 1496 1496 1496 1496 1496 1496 1496 1496 1496 1495 1495 1495 1494 1494 1494 1494 1494 1494 1494 1495 1494 1494 1494 1494 1494 1493 1493 1493 1494 1494 1494 1494 1494 1493
1487 1488 1489 1489 1490 1491 1491 1492 1492 1493 1493 1494 1493 1493 1493 1493 1493 1493 1492 1492 1491 1491 1491 1490 1491 1491 1491 1491 1491 1491 1490 1490 1490 1490 1490 1490 1490 1490 1490 1490 1490 1490 1490
1485 1486 1486 1487 1488 1488 1489 1489 1490 1490 1490 1491 1491 1490 1490 1490 1490 1490 1489 1489 1488 1487 1487 1487 1487 1487 1487 1487 1487 1487 1487 1487 1486 1486 1486 1486 1486 1486 1486 1486 1486 1486 1486
1483 1483 1483 1484 1485 1485 1486 1487 1487 1487 1487 1487 1487 1487 1487 1487 1487 1486 1486 1486 1485 1485 1484 1484 1484 1484 1484 1484 1484 1483 1483 1483 1483 1482 1482 1482 1482 1482 1482 1482 1482 1482 1483
1480 1480 1480 1481 1481 1482 1483 1483 1483 1484 1484 1484 1484 1484 1483 1483 1483 1483 1483 1483 1482 1482 1481 1481 1481 1480 1480 1480 1480 1480 1480 1480 1479 1479 1478 1478 1479 1479 1479 1479 1479 1479 1479
1476 1476 1477 1477 1478 1479 1480 1480 1479 1480 1480 1481 1480 1480 1480 1480 1480 1480 1479 1479 1479 1478 1478 1477 1477 1477 1477 1477 1477 1476 1476 1476 1476 1475 1475 1475 1475 1475 1475 1475 1475 1475 1475
1473 1473 1473 1474 1475 1476 1477 1477 1477 1477 1477 1477 1477 1477 1476 1476 1476 1476 1476 1475 1475 1475 1475 1474 1473 1473 1473 1473 1473 1473 1473 1473 1472 1472 1472 1472 1472 1472 1472 1472 1472 1472 1471
1470 1470 1470 1471 1471 1472 1472 1473 1473 1474 1474 1474 1473 1473 1473 1473 1472 1472 1472 1472 1471 1471 1471 1470 1469 1469 1469 1469 1469 1469 1469 1469 1469 1468 1468 1468 1468 1468 1468 1468 1468 1468 1468
1467 1467 1467 1467 1468 1469 1469 1469 1469 1470 1470 1470 1470 1469 1469 1469 1469 1468 1468 1468 1468 1467 1466 1466 1465 1465 1465 1465 1465 1465 1465 1465 1465 1465 1464 1465 1464 1464 1464 1464 1464 1464 1464
1463 1463 1464 1464 1465 1465 1465 1465 1465 1465 1465 1465 1465 1465 1465 1465 1465 1464 1464 1464 1463 1463 1462 1462 1461 1461 1461 1461 1461 1461 1461 1461 1461 1461 1460 1460 1461 1460 1461 1461 1461 1461 1461
1459 1460 1460 1460 1461 1461 1461 1461 1461 1461 1461 1461 1461 1461 1461 1461 1460 1460 1460 1459 1459 1458 1458 1457 1457 1457 1457 1457 1457 1457 1457 1457 1457 1457 1456 1456 1456 1456 1456 1456 1457 1457 1457
1456 1456 1456 1456 1456 1456 1457 1457 1457 1457 1457 1457 1457 1457 1456 1456 1455 1455 1455 1455 1454 1454 1454 1453 1453 1453 1453 1453 1453 1453 1453 1453 1453 1453 1452 1452 1452 1452 1452 1452 1452 1453 1453
1451 1451 1452 1452 1452 1452 1452 1453 1453 1453 1453 1453 1453 1453 1452 1452 1452 1451 1451 1451 1450 1450 1449 1449 1449 1449 1449 1449 1449 1449 1448 1448 1448 1448 1447 1447 1447 1447 1447 1447 1448 1448 1449
1447 1447 1447 1447 1447 1448 1448 1449 1449 1449 1449 1449 1449 1449 1448 1448 1448 1447 1447 1446 1446 1446 1445 1445 1445 1445 1445 1445 1444 1444 1444 1444 1443 1443 1443 1442 1442 1442 1443 1443 1443 1443 1444
1442 1443 1443 1443 1443 1443 1444 1444 1444 1444 1444 1445 1444 1444 1444 1444 1443 1443 1443 1442 1442 1442 1441 1441 1441 1440 1440 1440 1440 1440 1440 1439 1439 1439 1438 1438 1438 1438 1438 1438 1438 1438 1439
1438 1438 1438 1438 1439 1439 1439 1440 1440 1440 1440 1441 1440 1440 1440 1440 1439 1439 1439 1438 1438 1437 1437 1437 1437 1436 1436 1436 1436 1436 1436 1435 1435 1434 1434 1433 1433 1433 1433 1433 1433 1433 1434
1434 1435 1435 1435 1435 1435 1435 1436 1436 1436 1436 1437 1436 1436 1436 1436 1436 1435 1435 1435 1434 1434 1434 1433 1433 1433 1432 1432 1432 1432 1431 1431 1431 1431 1430 1430 1430 1429 1429 1428 1428 1429 1429
1431 1431 1432 1431 1431 1431 1432 1432 1432 1433 1433 1433 1433 1433 1432 1432 1432 1432 1432 1431 1431 1431 1430 1430 1430 1429 1429 1429 1428 1428 1428 1428 1428 1427 1426 1426 1426 1425 1425 1425 1425 1425 1425